CAPE
0 0 0 0 0 0 0 0 0 0 0 0 0 0 0 2 154 203 209 276 371 384 206 52 51 56 15 40 9 10 0 0 0 26 35 21 41 8 0 0 0 0 0 0
0 0 0 0 0 0 0 0 0 0 0 0 0 0 0 0 38 139 176 253 344 356 296 125 44 43 32 18 24 0 0 0 3 25 49 9 2 0 0 0 0 0 0 0
0 0 0 0 0 0 0 0 0 0 0 0 0 0 0 0 1 46 80 131 140 199 292 252 91 56 62 28 12 11 0 0 9 30 3 0 0 0 0 0 0 0 0 0
0 0 0 0 0 0 0 0 0 0 0 0 0 0 0 0 0 3 33 91 97 88 89 103 116 50 47 13 16 36 31 4 31 1 0 0 0 0 0 0 0 0 0 0
0 0 0 0 0 0 0 0 0 0 0 0 0 0 0 0 0 0 12 55 66 80 111 125 94 51 25 3 14 55 29 12 2 0 0 0 0 0 0 0 0 0 0 0
0 0 0 0 0 0 0 0 0 0 0 0 0 0 0 0 0 0 0 0 21 80 169 130 72 75 98 23 7 63 56 12 0 0 0 0 0 0 0 0 0 0 0 0
0 0 0 0 0 0 0 0 0 0 0 0 0 0 0 0 0 0 0 0 0 16 119 169 162 106 47 26 6 29 4 0 0 0 0 0 0 0 0 0 0 0 0 0
0 0 0 0 0 0 0 0 0 0 0 0 0 0 0 0 0 0 0 0 0 0 96 128 105 49 45 41 13 0 0 0 0 0 0 0 0 0 0 0 0 0 0 0
0 0 0 0 0 0 0 0 0 0 0 0 0 0 0 0 0 0 0 0 0 16 33 60 74 39 3 0 0 0 0 0 0 0 0 0 0 0 0 0 0 0 0 0
0 0 0 0 0 0 0 0 0 0 0 0 0 0 0 0 0 0 0 0 0 4 6 24 22 8 0 0 0 0 0 0 0 0 0 0 0 0 0 0 0 0 0 0
0 0 0 0 0 0 0 0 0 0 0 0 0 0 0 0 0 0 0 0 0 0 0 0 0 0 0 0 0 0 0 0 0 0 0 0 0 0 0 0 0 0 0 0
0 0 0 0 0 0 0 0 0 0 0 0 0 0 0 0 0 0 0 0 0 0 0 0 0 0 0 0 0 0 0 0 0 0 0 0 0 0 0 0 0 0 0 0
0 0 0 0 0 0 0 0 0 0 0 0 0 0 0 0 0 0 0 0 0 0 0 0 0 0 0 0 0 0 0 0 0 0 0 0 0 0 0 0 0 0 0 0
0 0 0 0 0 0 0 0 0 0 0 0 0 0 0 0 0 0 0 0 0 0 0 0 0 0 0 0 0 0 0 0 0 0 0 0 0 0 0 0 0 0 0 0
0 0 0 0 0 0 0 0 0 0 0 0 0 0 0 0 0 0 0 0 0 0 0 0 0 0 0 0 0 0 0 0 0 0 0 0 0 0 0 0 0 0 0 0
0 0 0 0 0 0 0 0 0 0 0 0 0 0 0 0 0 0 0 0 0 0 0 0 0 0 0 0 0 0 0 0 0 0 0 0 0 0 0 0 0 0 0 1
0 0 0 0 0 0 0 0 0 0 0 0 0 0 0 0 0 0 0 0 0 0 0 0 0 0 0 0 0 0 0 0 0 0 0 0 0 0 0 0 0 1 1 1
0 0 0 0 0 0 0 0 0 0 0 0 0 0 0 0 0 0 0 0 0 0 0 0 0 0 0 0 0 0 0 0 0 0 0 0 0 0 0 0 1 2 1 0
0 0 0 0 0 0 0 0 0 0 0 0 0 0 0 0 0 3 0 0 0 0 0 0 0 0 0 0 0 0 0 0 0 0 0 0 0 0 0 1 1 1 0 0
0 0 7 10 33 13 6 0 0 0 0 0 42 8 11 0 0 0 0 0 0 0 0 0 0 0 0 0 0 0 0 0 0 0 0 0 0 0 1 0 1 2 0 0
32 22 41 16 10 4 1 0 0 1 2 0 19 36 22 13 0 0 0 0 0 0 0 0 0 0 0 0 0 0 0 0 0 0 0 0 0 1 0 0 0 0 0 1
0 0 0 0 2 6 0 13 38 4 0 1 2 18 21 0 0 0 0 0 0 0 0 0 0 0 0 0 0 0 0 0 0 0 0 0 0 0 0 0 0 0 0 1
0 0 0 0 0 0 0 1 0 0 0 1 0 0 0 0 0 0 0 0 0 0 0 0 0 0 0 0 0 0 0 0 0 0 0 0 0 0 0 0 0 0 0 1
0 0 10 4 0 2 16 0 1 0 0 0 0 0 0 0 0 0 0 0 0 0 0 0 0 0 0 0 0 0 0 0 0 0 0 0 0 0 1 0 0 0 0 1
0 0 0 0 20 52 99 35 30 34 41 0 0 0 0 0 0 0 0 0 0 0 0 0 0 0 0 0 0 0 0 0 0 0 0 0 0 0 0 0 0 0 0 0
0 0 0 0 0 6 50 88 59 12 0 0 0 0 0 0 0 0 0 0 0 0 0 0 0 0 0 0 0 0 0 0 0 0 0 0 0 0 0 0 0 0 0 0
CIN
0 0 0 0 0 0 0 0 0 0 0 0 0 0 0 -100 -357 -293 -249 -240 -180 -188 -243 -393 -435 -430 -446 -358 -386 -311 0 0 0 -242 -225 -241 -223 -249 0 0 0 0 0 0
0 0 0 0 0 0 0 0 0 0 0 0 0 0 0 0 -295 -315 -263 -194 -147 -164 -189 -237 -348 -337 -368 -415 -392 0 0 0 -201 -227 -246 -207 -197 0 0 0 0 0 0 0
0 0 0 0 0 0 0 0 0 0 0 0 0 0 0 0 -93 -354 -311 -281 -239 -193 -161 -176 -252 -291 -340 -361 -360 -289 0 0 -225 -238 -160 0 0 0 0 0 0 0 0 0
0 0 0 0 0 0 0 0 0 0 0 0 0 0 0 0 0 -153 -198 -225 -227 -246 -286 -277 -254 -299 -325 -344 -344 -277 -195 -101 -213 -55 0 0 0 0 0 0 0 0 0 0
0 0 0 0 0 0 0 0 0 0 0 0 0 0 0 0 0 0 -176 -184 -185 -231 -254 -236 -274 -311 -317 -341 -296 -229 -222 -106 -44 0 0 0 0 0 0 0 0 0 0 0
0 0 0 0 0 0 0 0 0 0 0 0 0 0 0 0 0 0 0 0 -163 -167 -202 -260 -296 -309 -262 -324 -189 -199 -206 -95 0 0 0 0 0 0 0 0 0 0 0 0
0 0 0 0 0 0 0 0 0 0 0 0 0 0 0 0 0 0 0 0 0 -175 -192 -220 -225 -232 -247 -209 -146 -205 -105 0 0 0 0 0 0 0 0 0 0 0 0 0
0 0 0 0 0 0 0 0 0 0 0 0 0 0 0 0 0 0 0 0 0 0 -215 -203 -209 -225 -170 -149 -230 0 0 0 0 0 0 0 0 0 0 0 0 0 0 0
0 0 0 0 0 0 0 0 0 0 0 0 0 0 0 0 0 0 0 0 0 -163 -191 -191 -193 -173 -127 0 0 0 0 0 0 0 0 0 0 0 0 0 0 0 0 0
0 0 0 0 0 0 0 0 0 0 0 0 0 0 0 0 0 0 0 0 0 -173 -203 -198 -171 -121 0 0 0 0 0 0 0 0 0 0 0 0 0 0 0 0 0 0
0 0 0 0 0 0 0 0 0 0 0 0 0 0 0 0 0 0 0 0 0 0 0 -66 0 0 0 0 0 0 0 0 0 0 0 0 0 0 0 0 0 0 0 0
0 0 0 0 0 0 0 0 0 0 0 0 0 0 0 0 0 0 0 0 0 0 0 0 0 0 0 0 0 0 0 0 0 0 0 0 0 0 0 0 0 0 0 0
0 0 0 0 0 0 0 0 0 0 0 0 0 0 0 0 0 0 0 0 0 0 0 0 0 0 0 0 0 0 0 0 0 0 0 0 0 0 0 0 0 0 0 0
0 0 0 0 0 0 0 0 0 0 0 0 0 0 0 0 0 0 0 0 0 0 0 0 0 0 0 0 0 0 0 0 0 0 0 0 0 0 0 0 0 0 0 0
0 0 0 0 0 0 0 0 0 0 0 0 0 0 0 0 0 0 0 0 0 0 0 0 0 0 0 0 0 0 0 0 0 0 0 0 0 0 0 0 0 0 0 0
0 0 0 0 0 0 0 0 0 0 0 0 0 0 0 0 0 0 0 0 0 0 0 0 0 0 0 0 0 0 0 0 0 0 0 0 0 0 0 0 0 0 0 0
0 0 0 0 0 0 0 0 0 0 0 0 0 0 0 0 0 0 0 0 0 0 0 0 0 0 0 0 0 0 0 0 0 0 0 0 0 0 0 0 0 0 0 0
0 0 0 0 0 0 0 0 0 0 0 0 0 0 0 0 0 0 0 0 0 0 0 0 0 0 0 0 0 0 0 0 0 0 0 0 0 0 0 0 0 0 0 0
0 0 0 0 0 0 0 0 0 0 0 0 0 0 0 0 0 -56 0 0 0 0 0 0 0 0 0 0 0 0 0 0 0 0 0 0 0 0 0 0 0 0 0 0
0 0 -22 -66 -12 -4 -18 0 0 0 0 0 -141 -144 -118 -3 0 0 0 0 0 0 0 0 0 0 0 0 0 0 0 0 0 0 0 0 0 0 0 0 0 0 0 0
-43 -71 -22 -37 -20 -9 -2 0 0 -5 -24 0 -165 -126 -131 -91 0 0 0 0 0 0 0 0 0 0 0 0 0 0 0 0 0 0 0 0 0 0 0 0 0 0 0 -46
0 0 0 0 -13 -8 0 -115 -37 -4 0 -36 -64 -172 -145 0 0 0 0 0 0 0 0 0 0 0 0 0 0 0 0 0 0 0 0 0 0 0 0 0 0 0 0 -10
0 0 0 0 0 0 0 -8 -9 0 0 -14 0 0 0 0 0 0 0 0 0 0 0 0 0 0 0 0 0 0 0 0 0 0 0 0 0 0 0 0 0 0 0 -5
0 0 -51 -60 0 -18 -145 0 -30 0 0 0 0 0 0 0 0 0 0 0 0 0 0 0 0 0 0 0 0 0 0 0 0 0 0 0 0 0 0 0 0 0 0 0
0 0 0 0 -30 -120 -112 -144 -152 -167 -165 0 0 0 0 0 0 0 0 0 0 0 0 0 0 0 0 0 0 0 0 0 0 0 0 0 0 0 0 0 0 0 0 0
0 0 0 0 0 -58 -75 -131 -153 -85 0 0 0 0 0 0 0 0 0 0 0 0 0 0 0 0 0 0 0 0 0 0 0 0 0 0 0 0 0 0 0 0 0 0
Wind_Speed
15 12 16 15 13 13 14 16 17 19 21 18 20 20 18 6 6 4 4 7 7 7 6 5 9 14 17 13 11 9 9 9 9 12 16 21 24 24 24 27 29 31 33 33
12 11 16 13 13 13 16 19 21 20 23 19 19 23 20 12 6 5 4 5 6 4 3 2 9 13 16 15 12 11 9 9 11 15 20 22 23 24 27 28 29 30 32 32
10 13 15 12 12 15 18 19 21 18 22 20 18 19 20 18 15 12 10 7 6 5 4 5 8 13 14 16 12 9 10 11 13 16 19 23 23 26 30 32 32 31 32 32
13 14 10 11 15 18 21 21 20 20 22 18 16 15 15 16 16 13 12 10 8 8 7 9 9 11 13 14 13 10 10 11 12 17 21 24 29 32 32 33 33 33 33 35
12 11 12 14 18 17 20 24 23 23 19 15 23 16 14 13 12 11 11 11 10 10 10 11 11 13 14 15 15 11 11 11 17 19 21 26 29 29 32 33 33 35 35 36
11 13 14 14 17 19 19 24 23 19 17 18 23 18 14 11 10 11 11 11 12 12 12 13 14 17 19 17 14 13 12 14 17 19 23 26 29 32 34 35 37 38 37 38
12 14 12 15 17 21 23 25 26 20 21 19 24 20 17 9 10 11 11 11 11 12 14 16 16 19 19 17 14 14 14 17 18 22 25 26 30 33 34 35 37 38 38 38
11 14 15 17 18 18 22 22 22 21 22 23 21 20 19 14 12 12 10 11 13 14 17 17 18 17 16 16 17 18 19 20 21 23 25 27 29 30 31 33 34 36 37 34
12 14 15 16 17 19 21 23 19 19 20 22 20 20 19 15 13 13 11 11 13 16 16 17 17 15 17 19 18 18 20 23 24 25 27 28 27 29 31 32 34 36 33 32
9 15 14 15 17 22 20 16 22 22 24 24 21 22 23 16 12 11 10 10 13 14 16 17 16 17 17 19 19 20 21 23 23 25 25 24 25 26 28 32 33 32 32 32
9 14 15 15 20 20 21 21 21 20 20 22 25 23 19 17 10 7 9 12 13 14 15 15 16 17 17 18 19 19 21 23 24 25 25 27 27 27 29 31 32 31 31 33
12 13 15 16 18 20 21 22 20 24 25 21 23 25 19 19 17 10 11 11 12 14 15 17 16 16 17 16 17 19 21 23 25 26 27 29 29 31 30 30 31 31 32 32
10 16 17 19 20 19 21 22 21 21 21 24 26 27 26 26 23 15 11 11 14 15 16 16 16 16 15 16 18 19 21 24 26 27 30 32 33 33 31 30 31 32 32 30
13 15 17 20 19 19 20 22 22 21 24 24 23 27 30 25 20 14 13 13 14 14 15 15 16 15 16 17 20 22 25 26 28 30 32 34 35 34 31 30 31 33 30 29
15 18 18 18 19 21 22 24 23 22 22 24 26 26 27 21 13 12 15 17 16 16 14 13 14 15 17 19 20 23 25 27 29 31 35 36 35 32 31 31 32 32 29 26
17 18 18 21 21 23 23 23 23 23 24 22 22 23 18 20 17 18 16 16 14 15 12 13 16 18 19 20 21 24 26 28 30 33 36 36 34 33 32 32 33 31 28 25
18 16 20 24 23 24 27 21 22 24 22 21 24 23 23 23 23 19 16 14 15 15 13 16 18 19 21 22 23 26 26 27 31 36 38 36 35 34 34 34 32 28 26 25
17 18 21 23 22 26 22 19 21 23 23 20 21 23 21 22 21 19 16 15 15 14 16 20 22 24 27 25 24 24 26 30 34 37 36 35 35 35 35 33 29 27 25 24
17 17 21 23 23 25 23 19 21 22 24 19 20 20 21 23 22 22 26 19 19 24 26 25 28 29 26 23 22 23 27 31 34 34 32 33 34 34 34 31 30 27 25 23
19 18 20 20 24 26 22 19 20 20 25 19 18 19 20 19 25 25 30 29 26 27 31 33 32 28 25 22 20 24 28 31 33 32 31 31 31 32 31 31 30 25 21 20
22 21 23 24 27 27 20 17 16 25 24 17 18 18 17 21 20 24 28 29 28 29 33 33 31 28 24 20 21 25 28 32 30 30 30 30 30 31 31 30 27 23 21 19
25 27 27 25 28 32 16 14 19 19 17 16 17 19 21 21 23 26 29 32 34 36 36 34 29 26 23 21 22 25 30 30 29 29 30 31 30 31 31 29 26 24 22 15
25 22 25 20 24 20 15 18 16 16 18 16 18 19 20 24 26 28 31 35 36 37 36 33 29 26 22 20 22 26 28 29 28 29 30 30 28 31 29 27 26 17 9 13
23 19 23 23 22 20 19 17 16 15 16 16 18 20 21 24 27 31 33 36 38 38 37 33 28 23 21 19 21 25 27 27 28 29 29 27 28 29 27 26 18 11 10 13
19 16 20 22 20 19 17 14 12 14 16 17 18 19 22 25 27 28 32 36 38 38 35 33 28 23 19 19 21 24 26 26 28 28 27 26 25 25 24 24 15 14 15 14
11 13 15 19 14 17 17 13 13 15 17 16 17 20 23 23 25 26 31 33 35 38 35 33 27 21 18 19 21 24 24 25 26 26 25 25 23 21 21 20 18 17 16 14
Wind_Direction
328 5 346 5 26 16 17 355 358 0 341 351 348 354 3 61 59 71 123 136 138 146 123 85 32 20 20 28 30 31 28 23 17 3 350 343 343 345 348 347 346 345 344 343
4 11 5 23 16 11 345 339 337 347 343 356 357 349 4 31 55 52 78 111 134 119 124 127 9 8 11 14 18 17 13 2 356 347 342 344 346 347 345 346 346 345 345 344
16 342 336 13 359 351 340 350 348 1 348 358 4 6 7 23 34 38 43 57 72 87 80 32 4 359 4 5 12 15 11 356 351 346 348 345 346 344 342 342 343 343 343 343
351 328 16 16 337 333 331 342 353 355 345 352 6 9 18 19 26 41 60 59 49 40 32 18 7 2 1 2 5 8 4 353 350 346 342 342 339 337 340 340 341 341 341 339
344 11 3 345 328 354 345 340 338 344 356 16 355 9 20 28 37 48 43 36 32 24 21 13 9 0 356 356 358 1 356 353 346 344 345 341 339 339 340 340 339 339 339 338
3 1 1 13 4 357 357 346 345 350 1 356 356 3 11 28 38 30 23 24 23 26 17 6 2 359 352 355 355 359 357 349 350 349 346 343 341 340 339 339 338 338 339 338
341 338 7 351 346 344 347 349 346 347 347 355 354 3 11 30 22 23 25 22 28 19 8 5 4 358 358 1 4 4 2 356 356 351 348 347 343 342 341 340 339 339 338 338
345 331 334 334 343 349 352 356 355 348 347 349 355 357 4 17 18 13 18 16 14 8 6 5 5 8 10 11 9 7 3 360 358 355 351 348 347 345 343 342 341 339 339 340
337 331 351 344 352 348 346 348 4 359 354 351 355 0 2 11 11 7 10 9 3 5 8 9 10 12 10 7 5 6 4 359 357 354 352 350 350 347 345 344 342 341 343 343
4 333 346 346 353 345 352 13 349 351 345 346 353 352 353 3 4 4 1 360 4 9 7 8 9 7 10 11 11 8 4 1 359 358 357 356 354 352 348 345 344 344 344 345
4 343 343 347 339 342 346 346 348 354 352 346 344 349 357 358 0 356 357 3 9 10 9 11 11 12 15 14 11 9 5 1 359 359 358 355 353 351 349 347 345 345 346 345
348 351 338 336 339 344 347 346 350 341 341 347 345 344 3 357 353 348 353 7 11 14 13 13 14 13 13 13 10 6 2 0 359 358 356 354 352 350 349 349 348 347 346 347
352 332 331 331 333 342 345 349 352 354 350 342 339 339 348 349 350 357 0 1 359 1 5 12 13 12 12 7 4 3 1 358 358 356 354 351 349 349 350 350 349 348 348 350
345 334 332 327 333 339 339 341 346 347 340 341 340 339 339 346 356 7 2 1 0 1 4 9 8 7 3 357 353 354 354 354 353 353 351 349 349 349 350 351 351 349 351 353
333 324 331 335 336 335 334 334 341 340 342 338 341 342 347 357 7 7 359 360 2 1 1 5 2 357 352 350 349 348 349 350 351 351 349 348 349 350 351 351 351 351 353 356
328 322 327 325 329 332 332 338 341 341 343 344 348 348 2 2 2 358 357 357 359 357 359 358 353 351 346 343 344 346 347 349 351 350 348 348 349 351 352 352 352 353 358 2
321 325 321 318 324 326 326 337 341 342 346 346 340 348 353 352 352 0 6 5 1 358 356 349 344 340 340 342 344 348 350 351 349 348 347 348 349 350 352 352 354 357 1 5
321 321 321 320 324 320 333 341 341 339 341 347 346 345 355 357 357 2 8 2 2 1 351 347 342 340 341 345 348 350 352 351 350 349 350 350 350 351 352 355 359 2 3 4
324 321 318 318 319 323 329 337 340 340 339 345 346 352 355 354 359 0 352 354 353 351 349 347 345 344 347 346 348 352 352 351 352 354 356 356 355 355 356 0 360 1 3 5
324 320 317 321 318 318 331 339 344 346 335 346 351 352 357 2 353 355 346 350 356 355 354 353 354 355 353 352 356 356 355 356 356 359 0 0 2 1 3 1 1 3 8 14
315 316 311 312 311 317 327 338 352 332 336 354 355 357 359 353 356 354 351 354 356 354 351 353 354 355 358 3 5 1 2 1 3 5 6 7 7 10 9 9 14 24 30 25
310 308 308 312 310 311 333 340 330 341 351 354 356 356 353 354 351 350 351 351 351 350 352 353 354 354 1 9 8 6 3 5 8 9 11 11 15 16 17 23 32 37 46 119
311 315 314 313 317 330 336 335 343 351 347 351 351 354 353 347 347 349 349 348 349 351 352 354 355 1 7 11 11 7 7 9 12 14 15 17 25 25 33 42 53 94 172 171
315 321 313 316 320 321 324 330 341 349 347 350 351 352 354 351 347 346 349 349 349 350 352 355 358 1 7 14 14 12 11 14 16 18 20 29 33 39 52 64 95 134 155 162
319 325 319 318 323 330 334 339 348 351 349 348 352 356 351 348 350 354 351 350 350 351 354 357 359 5 11 18 15 15 15 19 19 23 29 38 47 56 68 81 108 123 136 153
329 329 323 322 334 330 333 342 343 343 344 354 356 353 353 356 357 356 353 353 354 352 355 357 3 12 18 19 16 16 20 22 25 29 36 45 58 68 82 96 111 117 130 147